Regional Weather Roundup
Issued by NWS

Home | Current Version | Previous Version | Text Only | Print | Product List | Glossary Off
Versions: 1 2 3 4 5 6 7 8 9 10 11 12 13 14 15 16 17 18 19 20 21 22 23 24 25 26 27 28 29 30 31 32 33 34 35 36 37 38 39 40 41 42 43 44 45 46 47 48 49 50

000
ASUS43 KFSD 200210
RWRSD

WEATHER ROUNDUP FOR SOUTH DAKOTA
NATIONAL WEATHER SERVICE SIOUX FALLS SD
900 PM CDT THU OCT 19 2017

NOTE: "FAIR" INDICATES FEW OR NO CLOUDS BELOW 12,000 FEET WITH NO
SIGNIFICANT WEATHER AND/OR OBSTRUCTIONS TO VISIBILITY.


SDZ001>005-009-010-012>017-200300-
NORTHWEST AND NORTH CENTRAL SOUTH DAKOTA

CITY           SKY/WX    TMP DP  RH WIND       PRES   REMARKS
BUFFALO          N/A     60  27  28 SE9       29.63F
FAITH            N/A     61  35  37 SE15      29.70F
MOBRIDGE       CLEAR     61  41  47 E10       29.69F
$$

SDZ012>016-024>037-041>051-057-063-072>074-200300-
SOUTHWEST AND SOUTH CENTRAL SOUTH DAKOTA

CITY           SKY/WX    TMP DP  RH WIND       PRES   REMARKS
RAPID CTY ARPT CLEAR     53  23  31 CALM      29.73F
PIERRE         CLEAR     64  43  46 SE9       29.71S
CUSTER         CLEAR     56  14  19 CALM      29.87F
ELLSWORTH AFB  CLEAR     63  22  20 S5        29.72F
PHILIP         CLOUDY    62  34  35 E3        29.70F
PINE RIDGE     CLOUDY    66  36  32 S5        29.78F
SPEARFISH      FAIR      55  27  33 S12       29.75F
WINNER         FAIR      70  46  42 S22G32    29.78F
$$

SDZ004>011-016>023-039-040-200300-
NORTHEAST SOUTH DAKOTA

CITY           SKY/WX    TMP DP  RH WIND       PRES   REMARKS
ABERDEEN       CLEAR     55  46  71 SE9       29.76S
WATERTOWN      CLEAR     58  50  75 S9        29.83S
BROOKINGS      CLEAR     63  49  60 S15       29.86S
SISSETON         N/A     58  49  72 SE7       29.78S
$$

SDZ017-020-022-023-036>040-048>070-200300-
SOUTHEAST SOUTH DAKOTA

CITY           SKY/WX    TMP DP  RH WIND       PRES   REMARKS
SIOUX FALLS    CLEAR     67  52  58 S17       29.88F
HURON          CLEAR     63  49  60 S15       29.79S
CHAMBERLAIN    CLEAR     66  47  50 SE9       29.79S
MITCHELL       CLEAR     65  49  56 S13       29.82S
YANKTON        CLEAR     63  51  65 SE9       29.88F
$$

ABBREVIATIONS USED IN REMARKS
   TC - TEMPERATURE IN CELSIUS
  WCI - WIND CHILL INDEX
   HX - HEAT INDEX
  VSB - VISIBILITY





USA.gov is the U.S. government's official web portal to all federal, state and local government web resources and services.